Location: Evergreen Manor
(41.4083°N, 81.4939°W)
Time: 10:22:46
(UTC+00:00)

Cosmos 1420 Rocket - Pass Details

Date: 11 December 2019
Orbit: 754 x 781 km, 74.0° (Epoch: 19 January)

Event Time Altitude Azimuth Distance (km) Brightness Sun altitude
Exits shadow 10:25:03 27° 202° (SSW) 1,443 5.3 -24.8°
Maximum altitude 10:28:00 84° 289° (WNW) 766 3.8 -24.3°
Drops below altitude 10° 10:33:12 10° 18° (NNE) 2,289 6.5 -23.3°
Sets 10:35:34 0° 19° (NNE) 3,217 7.3 -22.9°
